When you browse on this site, cookies collect data to enhance your experience and personalize the content and advertising you see.
Visit our Privacy Policy to learn more. By continuing to use the site, you agree to this use of cookies and data.
  • en France
  • Liste des pays
  • À 7 jours
  • Température de l'eau
  • Carte satellitaire
  • Carte météo
  • Widgets météo
  • user-avatar
    Se connecter

    Météo par heure à Kosice

    Ce jour, 18 Juin, Mardi

    Heure Température Précipitation Vent Pression Humidité
    00:00 +17°C° 0 mm 4 m/s 738 mmHg 73%
    01:00 +16°C° 0 mm 3 m/s 738 mmHg 77%
    02:00 +16°C° 0 mm 3 m/s 738 mmHg 80%
    03:00 +16°C° 0 mm 3 m/s 738 mmHg 82%
    04:00 +16°C° 0 mm 3 m/s 738 mmHg 84%
    05:00 +17°C° 0 mm 3 m/s 738 mmHg 82%
    06:00 +18°C° 0 mm 3 m/s 738 mmHg 81%
    07:00 +20°C° 0 mm 3 m/s 738 mmHg 79%
    08:00 +21°C° 0 mm 3 m/s 738 mmHg 75%
    09:00 +24°C° 0 mm 3 m/s 738 mmHg 72%
    10:00 +25°C° 0 mm 2 m/s 738 mmHg 69%
    11:00 +26°C° 0.1 mm 2 m/s 738 mmHg 67%
    12:00 +27°C° 0.1 mm 2 m/s 738 mmHg 65%
    13:00 +27°C° 0.1 mm 2 m/s 738 mmHg 64%
    14:00 +27°C° 0.6 mm 2 m/s 737 mmHg 66%
    15:00 +27°C° 0.6 mm 2 m/s 737 mmHg 68%
    16:00 +27°C° 0.6 mm 1 m/s 737 mmHg 70%
    17:00 +26°C° 0.4 mm 1 m/s 737 mmHg 75%
    18:00 +24°C° 0.4 mm 1 m/s 736 mmHg 80%
    19:00 +23°C° 0.4 mm 1 m/s 736 mmHg 86%
    20:00 +22°C° 0.1 mm 1 m/s 736 mmHg 88%
    21:00 +21°C° 0.1 mm 1 m/s 736 mmHg 90%
    22:00 +20°C° 0.1 mm 1 m/s 736 mmHg 92%
    23:00 +20°C° 0 mm 1 m/s 736 mmHg 92%

    Demain, 19 Juin, Mercredi

    Heure Température Précipitation Vent Pression Humidité
    00:00 +20°C° 0 mm 1 m/s 736 mmHg 93%
    01:00 +19°C° 0 mm 1 m/s 736 mmHg 93%
    02:00 +19°C° 0 mm 1 m/s 736 mmHg 93%
    03:00 +19°C° 0 mm 1 m/s 736 mmHg 93%
    04:00 +19°C° 0 mm 1 m/s 736 mmHg 93%
    05:00 +21°C° 0 mm 1 m/s 736 mmHg 90%
    06:00 +20°C° 0 mm 0 m/s 736 mmHg 86%
    07:00 +22°C° 0 mm 0 m/s 736 mmHg 83%
    08:00 +25°C° 0.8 mm 1 m/s 736 mmHg 81%
    09:00 +26°C° 0.8 mm 1 m/s 736 mmHg 79%
    10:00 +27°C° 0.8 mm 1 m/s 735 mmHg 76%
    11:00 +27°C° 0.5 mm 2 m/s 735 mmHg 71%
    12:00 +28°C° 0.5 mm 2 m/s 735 mmHg 66%
    13:00 +29°C° 0.5 mm 2 m/s 735 mmHg 61%
    14:00 +29°C° 0 mm 2 m/s 735 mmHg 62%
    15:00 +29°C° 0 mm 2 m/s 735 mmHg 62%
    16:00 +29°C° 0 mm 2 m/s 734 mmHg 63%
    17:00 +27°C° 0.6 mm 2 m/s 734 mmHg 69%
    18:00 +26°C° 0.6 mm 1 m/s 734 mmHg 75%
    19:00 +22°C° 0.6 mm 0 m/s 734 mmHg 81%
    20:00 +21°C° 0.6 mm 0 m/s 734 mmHg 83%
    21:00 +20°C° 0.6 mm 0 m/s 734 mmHg 85%
    22:00 +20°C° 0.6 mm 0 m/s 734 mmHg 87%
    23:00 +19°C° 1.2 mm 0 m/s 734 mmHg 88%

    Après-demain, 20 Juin, Jeudi

    Heure Température Précipitation Vent Pression Humidité
    00:00 +19°C° 1.2 mm 0 m/s 734 mmHg 89%
    01:00 +19°C° 1.2 mm 0 m/s 734 mmHg 91%
    02:00 +18°C° 0.2 mm 0 m/s 734 mmHg 91%
    03:00 +18°C° 0.2 mm 0 m/s 734 mmHg 92%
    04:00 +18°C° 0.2 mm 0 m/s 734 mmHg 92%
    05:00 +19°C° 0 mm 0 m/s 734 mmHg 91%
    06:00 +20°C° 0 mm 0 m/s 734 mmHg 90%
    07:00 +23°C° 0 mm 1 m/s 735 mmHg 89%
    08:00 +23°C° 0.5 mm 1 m/s 735 mmHg 89%
    09:00 +23°C° 0.5 mm 1 m/s 735 mmHg 88%
    10:00 +24°C° 0.5 mm 1 m/s 735 mmHg 88%
    11:00 +25°C° 0.4 mm 2 m/s 735 mmHg 81%
    12:00 +27°C° 0.4 mm 2 m/s 735 mmHg 73%
    13:00 +28°C° 0.4 mm 2 m/s 734 mmHg 66%
    14:00 +28°C° 1.1 mm 2 m/s 734 mmHg 69%
    15:00 +28°C° 1.1 mm 2 m/s 734 mmHg 72%
    16:00 +27°C° 1.1 mm 1 m/s 734 mmHg 75%
    17:00 +26°C° 0.5 mm 1 m/s 734 mmHg 79%
    18:00 +25°C° 0.5 mm 1 m/s 734 mmHg 83%
    19:00 +24°C° 0.5 mm 1 m/s 734 mmHg 87%
    20:00 +23°C° 0.4 mm 1 m/s 734 mmHg 88%
    21:00 +22°C° 0.4 mm 1 m/s 734 mmHg 89%
    22:00 +21°C° 0.4 mm 1 m/s 734 mmHg 91%
    23:00 +21°C° 0 mm 1 m/s 734 mmHg 90%

    21 Juin, Vendredi

    Heure Température Précipitation Vent Pression Humidité
    00:00 +18°C° 0 mm 0 m/s 735 mmHg 90%
    01:00 +18°C° 0 mm 0 m/s 735 mmHg 90%
    02:00 +18°C° 0 mm 0 m/s 735 mmHg 90%
    03:00 +18°C° 0 mm 0 m/s 735 mmHg 90%
    04:00 +17°C° 0 mm 0 m/s 735 mmHg 90%
    05:00 +19°C° 0 mm 0 m/s 735 mmHg 87%
    06:00 +23°C° 0 mm 1 m/s 735 mmHg 84%
    07:00 +24°C° 0 mm 1 m/s 735 mmHg 80%
    08:00 +26°C° 0 mm 1 m/s 735 mmHg 75%
    09:00 +27°C° 0 mm 2 m/s 735 mmHg 69%
    10:00 +28°C° 0 mm 2 m/s 736 mmHg 63%
    11:00 +29°C° 0.1 mm 3 m/s 735 mmHg 63%
    12:00 +29°C° 0.1 mm 3 m/s 735 mmHg 62%
    13:00 +29°C° 0.1 mm 4 m/s 735 mmHg 62%
    14:00 +29°C° 0.3 mm 4 m/s 735 mmHg 64%
    15:00 +29°C° 0.3 mm 3 m/s 734 mmHg 65%
    16:00 +29°C° 0.3 mm 3 m/s 734 mmHg 67%
    17:00 +27°C° 0.8 mm 2 m/s 734 mmHg 73%
    18:00 +25°C° 0.8 mm 2 m/s 734 mmHg 79%
    19:00 +24°C° 0.8 mm 1 m/s 734 mmHg 85%
    20:00 +23°C° 0 mm 1 m/s 734 mmHg 87%
    21:00 +22°C° 0 mm 1 m/s 735 mmHg 88%
    22:00 +19°C° 0 mm 0 m/s 735 mmHg 89%
    23:00 +19°C° 0.8 mm 0 m/s 735 mmHg 91%

    22 Juin, Samedi

    Heure Température Précipitation Vent Pression Humidité
    00:00 +20°C° 0.8 mm 1 m/s 735 mmHg 92%
    01:00 +20°C° 0.8 mm 1 m/s 735 mmHg 93%
    02:00 +20°C° 0.5 mm 1 m/s 735 mmHg 94%
    03:00 +18°C° 0.5 mm 2 m/s 735 mmHg 95%
    04:00 +18°C° 0.5 mm 2 m/s 735 mmHg 96%
    05:00 +19°C° 0.2 mm 2 m/s 735 mmHg 93%
    06:00 +20°C° 0.2 mm 3 m/s 736 mmHg 91%
    07:00 +21°C° 0.2 mm 3 m/s 736 mmHg 88%
    08:00 +22°C° 0.1 mm 3 m/s 736 mmHg 84%
    09:00 +23°C° 0.1 mm 4 m/s 736 mmHg 80%
    10:00 +23°C° 0.1 mm 4 m/s 736 mmHg 75%
    11:00 +25°C° 0.4 mm 4 m/s 736 mmHg 75%
    12:00 +25°C° 0.4 mm 3 m/s 736 mmHg 75%
    13:00 +25°C° 0.4 mm 3 m/s 736 mmHg 75%
    14:00 +25°C° 1.4 mm 3 m/s 736 mmHg 78%
    15:00 +25°C° 1.4 mm 3 m/s 736 mmHg 80%
    16:00 +25°C° 1.4 mm 2 m/s 736 mmHg 83%
    17:00 +24°C° 1.5 mm 2 m/s 736 mmHg 86%
    18:00 +23°C° 1.5 mm 2 m/s 736 mmHg 89%
    19:00 +21°C° 1.5 mm 2 m/s 736 mmHg 92%
    20:00 +20°C° 0 mm 2 m/s 736 mmHg 93%
    21:00 +19°C° 0 mm 2 m/s 736 mmHg 94%
    22:00 +18°C° 0 mm 2 m/s 736 mmHg 96%
    23:00 +18°C° 0 mm 2 m/s 736 mmHg 96%

    23 Juin, Dimanche

    Heure Température Précipitation Vent Pression Humidité
    00:00 +18°C° 0 mm 2 m/s 736 mmHg 96%
    01:00 +18°C° 0 mm 2 m/s 736 mmHg 96%
    02:00 +18°C° 0 mm 2 m/s 736 mmHg 96%
    03:00 +19°C° 0 mm 1 m/s 736 mmHg 96%
    04:00 +18°C° 0 mm 1 m/s 736 mmHg 96%
    05:00 +20°C° 0 mm 1 m/s 736 mmHg 93%
    06:00 +21°C° 0 mm 1 m/s 737 mmHg 90%
    07:00 +22°C° 0 mm 1 m/s 737 mmHg 87%
    08:00 +23°C° 0.3 mm 1 m/s 737 mmHg 83%
    09:00 +23°C° 0.3 mm 0 m/s 737 mmHg 79%
    10:00 +24°C° 0.3 mm 0 m/s 737 mmHg 75%
    11:00 +26°C° 1.6 mm 1 m/s 737 mmHg 77%
    12:00 +26°C° 1.6 mm 1 m/s 737 mmHg 79%
    13:00 +25°C° 1.6 mm 1 m/s 737 mmHg 81%
    14:00 +25°C° 2.3 mm 1 m/s 737 mmHg 82%
    15:00 +25°C° 2.3 mm 2 m/s 737 mmHg 83%
    16:00 +24°C° 2.3 mm 2 m/s 737 mmHg 84%
    17:00 +23°C° 0.1 mm 2 m/s 737 mmHg 86%
    18:00 +21°C° 0.1 mm 2 m/s 737 mmHg 88%
    19:00 +20°C° 0.1 mm 2 m/s 737 mmHg 90%
    20:00 +19°C° 0 mm 2 m/s 738 mmHg 91%
    21:00 +18°C° 0 mm 2 m/s 738 mmHg 93%
    22:00 +17°C° 0 mm 3 m/s 738 mmHg 94%
    23:00 +17°C° 0 mm 2 m/s 738 mmHg 94%
    Voir plus